Weather History for Tappahannock, VA

Change the Weather History Date:

Wednesday, November 7, 2012

  Actual Average (KRIC) Record (KRIC)
Temperature  
Mean Temperature 42 °F 53 °F  
Max Temperature 47 °F 65 °F 79 °F (1975)
Min Temperature 39 °F 42 °F 22 °F (1967)
Degree Days  
Heating Degree Days 22 12  
Month to date heating degree days 79  
Since 1 July heating degree days 312  
Cooling Degree Days 0 0  
Month to date cooling degree days 0  
Year to date cooling degree days 1543  
Moisture  
Dew Point 35 °F    
Average Humidity 76    
Maximum Humidity 91    
Minimum Humidity 64    
Precipitation  
Precipitation 0.00 in 0.10 in 1.99 in (1997)
Month to date precipitation 0.76  
Year to date precipitation 37.86  
Snow  
Snow 0.00 in 0.00 in 0.10 in (1953)
Month to date snowfall 0.0  
Since 1 July snowfall 0.0  
Snow Depth -    
Sea Level Pressure  
Sea Level Pressure 29.89 in    
Wind  
Wind Speed 6 mph (NNW)    
Max Wind Speed 13 mph    
Max Gust Speed 18 mph    
Visibility 10 miles    
Events Rain    
T = Trace of Precipitation, MM = Missing Value Source: NWS Daily Summary

Daily Weather History Graph

Daily Weather History Graph

Search for Another Location

Airport:

Trip Planner

Search our weather history database for the weather conditions in past years. The results will help you decide how hot, cold, wet, or windy it might be!

Date:

Astronomy

Nov. 07, 2012 Rise Set
Actual Time 6:39 AM EST 5:02 PM EST
Civil Twilight 6:12 AM EST 5:29 PM EST
Nautical Twilight 5:40 AM EST 6:01 PM EST
Astronomical Twilight 5:10 AM EST 6:31 PM EST
Moon No Moon Rise 1:03 PM EST (11/7)
Length of Visible Light 11h 17m
Length of Day
10h 22m
Last Quarter, 43% of the Moon is Illuminated
Nov 7
Last Quarter
Nov 13
New
Nov 20
First Quarter
Nov 28
Full
Dec 6
Last Quarter

Hourly Weather History & Observations

Time (EST) Temp. Windchill Dew Point Humidity Pressure Visibility Wind Dir Wind Speed Gust Speed Precip Events Conditions
12:15 AM 43.3 °F 41.7 °F 38.1 °F 82% 29.95 in 10.0 mi NW 3.5 mph - N/A   Overcast
12:35 AM 43.2 °F 39.7 °F 38.3 °F 83% 29.93 in 10.0 mi NNW 5.8 mph - N/A   Overcast
12:55 AM 43.7 °F 39.7 °F 37.6 °F 79% 29.93 in 10.0 mi NNW 6.9 mph - N/A   Overcast
1:15 AM 43.3 °F 39.2 °F 37.4 °F 80% 29.92 in 10.0 mi North 6.9 mph - N/A   Light Drizzle
1:35 AM 43.3 °F 39.2 °F 36.7 °F 77% 29.91 in 10.0 mi North 6.9 mph - N/A   Overcast
1:55 AM 43.3 °F 38.6 °F 36.5 °F 77% 29.91 in 10.0 mi NNW 8.1 mph - N/A   Light Drizzle
2:15 AM 42.6 °F 39.9 °F 36.0 °F 77% 29.91 in 10.0 mi North 4.6 mph - N/A Rain Rain
2:35 AM 41.9 °F 39.0 °F 36.5 °F 81% 29.90 in 10.0 mi NNW 4.6 mph - N/A   Light Drizzle
2:55 AM 41.4 °F 37.6 °F 36.5 °F 83% 29.90 in 10.0 mi North 5.8 mph - N/A   Light Drizzle
3:15 AM 41.0 °F 37.1 °F 36.5 °F 84% 29.90 in 10.0 mi North 5.8 mph - N/A Rain Rain
3:35 AM 40.5 °F 35.8 °F 36.1 °F 85% 29.89 in 10.0 mi North 6.9 mph - N/A Rain Rain
3:55 AM 40.5 °F 38.4 °F 35.8 °F 83% 29.89 in 10.0 mi NNW 3.5 mph - N/A   Light Drizzle
4:15 AM 40.5 °F 37.3 °F 35.4 °F 82% 29.90 in 10.0 mi NNW 4.6 mph - N/A   Mostly Cloudy
4:35 AM 40.6 °F 36.7 °F 34.9 °F 80% 29.90 in 10.0 mi NNW 5.8 mph - N/A Rain Light Rain
4:55 AM 40.8 °F 38.8 °F 34.7 °F 79% 29.90 in 10.0 mi NNW 3.5 mph - N/A   Light Drizzle
5:15 AM 40.6 °F 37.5 °F 34.3 °F 78% 29.90 in 10.0 mi NW 4.6 mph - N/A   Overcast
5:35 AM 40.6 °F 37.5 °F 34.7 °F 79% 29.90 in 10.0 mi NNW 4.6 mph - N/A   Overcast
5:55 AM 41.0 °F 38.0 °F 34.7 °F 78% 29.90 in 10.0 mi NW 4.6 mph - N/A   Light Drizzle
6:15 AM 40.5 °F 36.5 °F 34.7 °F 80% 29.90 in 10.0 mi NW 5.8 mph - N/A Rain Light Rain
6:35 AM 40.6 °F 37.5 °F 34.7 °F 79% 29.90 in 10.0 mi NNW 4.6 mph - N/A   Light Drizzle
6:55 AM 40.1 °F 34.7 °F 35.6 °F 84% 29.90 in 10.0 mi NNW 8.1 mph - N/A Rain Rain
7:15 AM 39.4 °F 35.2 °F 36.5 °F 89% 29.90 in 10.0 mi NW 5.8 mph - N/A Rain Light Rain
7:35 AM 39.2 °F 34.2 °F 36.9 °F 91% 29.90 in 10.0 mi NW 6.9 mph - N/A Rain Light Rain
7:55 AM 39.0 °F 34.0 °F 36.5 °F 91% 29.90 in 10.0 mi NW 6.9 mph - N/A Rain Rain
8:15 AM 39.2 °F 34.2 °F 36.5 °F 90% 29.90 in 10.0 mi NNW 6.9 mph - N/A   Light Drizzle
8:35 AM 39.4 °F 35.2 °F 36.5 °F 89% 29.90 in 10.0 mi NNW 5.8 mph - N/A   Overcast
8:55 AM 39.6 °F 34.7 °F 36.5 °F 89% 29.89 in 10.0 mi NNW 6.9 mph - N/A   Overcast
9:15 AM 40.3 °F 36.3 °F 37.0 °F 88% 29.88 in 10.0 mi NNW 5.8 mph - N/A   Overcast
9:35 AM 41.0 °F 36.4 °F 36.7 °F 85% 29.89 in 10.0 mi NNW 6.9 mph - N/A   Overcast
9:55 AM 41.2 °F 37.3 °F 36.7 °F 84% 29.88 in 10.0 mi NNW 5.8 mph - N/A   Overcast
10:15 AM 41.9 °F 36.9 °F 36.7 °F 82% 29.88 in 10.0 mi NNW 8.1 mph - N/A   Overcast
10:35 AM 42.1 °F 37.1 °F 36.5 °F 81% 29.88 in 10.0 mi NNW 8.1 mph - N/A   Overcast
10:55 AM 42.4 °F 37.0 °F 36.1 °F 78% 29.87 in 10.0 mi North 9.2 mph - N/A   Overcast
11:15 AM 43.2 °F 37.0 °F 36.3 °F 77% 29.87 in 10.0 mi NNW 11.5 mph - N/A   Overcast
11:35 AM 44.1 °F 39.5 °F 37.0 °F 76% 29.87 in 10.0 mi NNW 8.1 mph - N/A   Overcast
11:55 AM 44.1 °F 39.5 °F 36.3 °F 74% 29.86 in 10.0 mi NNW 8.1 mph - N/A   Overcast
12:15 PM 44.8 °F 42.4 °F 36.5 °F 73% 29.85 in 10.0 mi NW 4.6 mph - N/A   Overcast
12:35 PM 45.7 °F 42.7 °F 36.7 °F 71% 29.85 in 10.0 mi NNW 5.8 mph - N/A   Overcast
12:55 PM 46.6 °F - 36.5 °F 68% 29.85 in 10.0 mi NNW 8.1 mph - N/A   Overcast
1:15 PM 46.6 °F - 35.6 °F 66% 29.85 in 10.0 mi NNW 12.7 mph 16.1 mph N/A   Overcast
1:35 PM 45.9 °F 41.7 °F 34.5 °F 65% 29.85 in 10.0 mi NW 8.1 mph - N/A   Overcast
1:55 PM 46.0 °F 41.0 °F 34.5 °F 64% 29.85 in 10.0 mi NW 10.4 mph - N/A   Overcast
2:15 PM 45.3 °F 40.1 °F 33.6 °F 64% 29.84 in 10.0 mi NW 10.4 mph 18.4 mph N/A   Overcast
2:35 PM 45.1 °F 40.3 °F 33.8 °F 65% 29.85 in 10.0 mi NW 9.2 mph - N/A   Mostly Cloudy
2:55 PM 44.8 °F 41.0 °F 33.3 °F 64% 29.85 in 10.0 mi NW 6.9 mph - N/A   Mostly Cloudy
3:15 PM 44.8 °F 41.6 °F 33.4 °F 64% 29.85 in 10.0 mi NW 5.8 mph - N/A   Overcast
3:35 PM 44.6 °F 40.7 °F 33.3 °F 64% 29.86 in 10.0 mi NNW 6.9 mph - N/A   Overcast
3:55 PM 44.6 °F 40.2 °F 32.9 °F 64% 29.86 in 10.0 mi NNW 8.1 mph - N/A   Overcast
4:15 PM 44.1 °F 39.5 °F 32.9 °F 65% 29.86 in 10.0 mi NW 8.1 mph - N/A   Overcast
4:35 PM 43.9 °F 39.3 °F 32.7 °F 65% 29.86 in 10.0 mi NW 8.1 mph - N/A   Overcast
4:55 PM 43.3 °F 39.2 °F 32.9 °F 67% 29.86 in 10.0 mi NNW 6.9 mph - N/A   Overcast
5:15 PM 43.2 °F 41.5 °F 32.9 °F 67% 29.87 in 10.0 mi NW 3.5 mph - N/A   Overcast
5:35 PM 43.0 °F 39.5 °F 33.1 °F 68% 29.88 in 10.0 mi NW 5.8 mph - N/A   Light Drizzle
5:55 PM 42.8 °F 39.3 °F 33.3 °F 69% 29.88 in 10.0 mi NNW 5.8 mph - N/A   Overcast
6:15 PM 42.4 °F 38.1 °F 33.6 °F 71% 29.88 in 10.0 mi NNW 6.9 mph - N/A Rain Light Rain
6:35 PM 42.1 °F 38.4 °F 33.8 °F 72% 29.88 in 10.0 mi NW 5.8 mph - N/A   Overcast
6:55 PM 42.1 °F 36.6 °F 33.3 °F 71% 29.88 in 10.0 mi NW 9.2 mph - N/A   Scattered Clouds
7:15 PM 42.1 °F 39.2 °F 33.6 °F 72% 29.88 in 10.0 mi NW 4.6 mph - N/A   Clear
7:35 PM 42.1 °F 39.2 °F 33.4 °F 71% 29.89 in 10.0 mi NW 4.6 mph - N/A   Clear
7:55 PM 42.1 °F 39.2 °F 33.4 °F 71% 29.89 in 10.0 mi NW 4.6 mph - N/A   Light Drizzle
8:15 PM 41.9 °F 39.0 °F 34.0 °F 73% 29.89 in 10.0 mi NNW 4.6 mph - N/A Rain Light Rain
8:35 PM 41.5 °F - 34.5 °F 76% 29.89 in 10.0 mi Calm Calm - N/A   Light Drizzle
8:55 PM 41.4 °F 39.4 °F 34.9 °F 78% 29.90 in 10.0 mi WNW 3.5 mph - N/A Rain Light Rain
9:15 PM 41.5 °F 37.1 °F 34.0 °F 75% 29.90 in 10.0 mi NW 6.9 mph - N/A   Light Drizzle
9:35 PM 41.9 °F 37.5 °F 34.0 °F 73% 29.89 in 10.0 mi NW 6.9 mph - N/A   Light Drizzle
9:55 PM 41.7 °F 38.0 °F 34.0 °F 74% 29.89 in 10.0 mi NW 5.8 mph - N/A   Overcast
10:15 PM 41.9 °F 36.9 °F 32.5 °F 69% 29.89 in 10.0 mi NNW 8.1 mph - N/A   Overcast
10:35 PM 41.9 °F 39.0 °F 32.0 °F 68% 29.89 in 10.0 mi NW 4.6 mph - N/A   Overcast
10:55 PM 41.9 °F 38.2 °F 32.0 °F 68% 29.89 in 10.0 mi WNW 5.8 mph - N/A   Drizzle
11:15 PM 40.8 °F 37.8 °F 33.1 °F 74% 29.90 in 10.0 mi NNW 4.6 mph - N/A   Drizzle
11:35 PM 40.3 °F - 33.4 °F 77% 29.90 in 10.0 mi Calm Calm - N/A   Drizzle
11:55 PM 40.1 °F 38.0 °F 34.0 °F 79% 29.90 in 10.0 mi NW 3.5 mph - N/A   Light Drizzle